This is the latest recevied weather packets stored in our database for station/object KD2DXJ. If no packets are shown the sender has not sent any weather packets the latest 10 day(s).
| Time | Temp. | Humidity | Pressure | Rain* | Wind** | Luminosity | Snow |
|---|---|---|---|---|---|---|---|
| 1777572577 | 7.22° C | 87% | 1008.5 hPa | 0 mm | - | 136 W/m² | - |
| 1777572272 | 7.22° C | 88% | 1008.6 hPa | 0 mm | - | 129 W/m² | - |
| 1777571968 | 7.22° C | 87% | 1008.7 hPa | 0 mm | - | 95 W/m² | - |
| 1777571668 | 7.22° C | 87% | 1008.6 hPa | 0 mm | - | 133 W/m² | - |
| 1777571367 | 7.22° C | 88% | 1008.5 hPa | 0 mm | - | 144 W/m² | - |
| 1777571062 | 7.22° C | 89% | 1008.5 hPa | 0 mm | - | 128 W/m² | - |
| 1777570758 | 7.22° C | 90% | 1008.7 hPa | 0 mm | - | 128 W/m² | - |
| 1777570455 | 7.78° C | 89% | 1008.5 hPa | 0 mm | - | 142 W/m² | - |
| 1777570150 | 7.78° C | 89% | 1008.4 hPa | 0 mm | - | 159 W/m² | - |
| 1777569847 | 7.78° C | 90% | 1008.5 hPa | 0 mm | - | 159 W/m² | - |
| 1777569543 | 7.22° C | 91% | 1008.4 hPa | 0 mm | - | 218 W/m² | - |
| 1777569239 | 7.22° C | 91% | 1008.4 hPa | 0 mm | - | 145 W/m² | - |
| 1777568936 | 7.22° C | 91% | 1008.3 hPa | 0 mm | - | 116 W/m² | - |
| 1777568632 | 7.22° C | 91% | 1008.4 hPa | 0 mm | - | 109 W/m² | - |
| 1777568330 | 7.78° C | 91% | 1008.2 hPa | 0 mm | - | 106 W/m² | - |
| 1777568026 | 7.78° C | 92% | 1008.3 hPa | 0 mm | - | 169 W/m² | - |
| 1777567723 | 7.22° C | 92% | 1008.2 hPa | 0 mm | - | 266 W/m² | - |
| 1777567419 | 6.67° C | 94% | 1008.3 hPa | 0 mm | - | 174 W/m² | - |
| 1777567118 | 6.67° C | 94% | 1008.2 hPa | 0 mm | - | 140 W/m² | - |
| 1777566815 | 6.67° C | 95% | 1008.1 hPa | 0 mm | - | 168 W/m² | - |
| 1777566513 | 6.67° C | 95% | 1008.1 hPa | 0 mm | - | 161 W/m² | - |
| 1777566210 | 6.11° C | 95% | 1007.9 hPa | 0 mm | - | 165 W/m² | - |
| 1777565906 | 6.11° C | 96% | 1008.1 hPa | 0 mm | - | 131 W/m² | - |
| 1777565602 | 6.11° C | 95% | 1008 hPa | 0 mm | - | 98 W/m² | - |
| 1777565299 | 6.11° C | 96% | 1008 hPa | 0 mm | - | 123 W/m² | - |
* Rain latest hour (hover to see other rain measurements)
** Current wind speed in m/s (hover to see current wind gust speed)